,,PA_Meas_PMT16A,,PR_Meas_QMR101_102,,RH_Meas_QMH101,,SR_Meas_QMS101,,TA_Meas_QMH101,,GenWind,,GenWind,
time,status,PA,status,PR,status,RH,status,SR,status,TA,status,DirAvg,status,SpdAvg,
2011-11-17, 00:00:04,VALID,916.848,VALID,0,VALID,96.9698,VALID,0,VALID,20.1123,VALID,46,VALID,0,
2011-11-17, 00:01:04,VALID,916.845,VALID,0,VALID,97.0385,VALID,0,VALID,20.1123,VALID,46,VALID,0.478516,
2011-11-17, 00:02:04,VALID,916.834,VALID,0,VALID,97.0308,VALID,0,VALID,20.0944,VALID,46,VALID,0.420312,
2011-11-17, 00:03:04,VALID,916.853,VALID,0,VALID,97.0308,VALID,0,VALID,20.0538,VALID,45,VALID,0.476172,
2011-11-17, 00:04:04,VALID,916.844,VALID,0,VALID,97.1376,VALID,0,VALID,20.0733,VALID,45,VALID,0.608594,
2011-11-17, 00:05:04,VALID,916.843,VALID,0,VALID,97.2595,VALID,0,VALID,20.1334,VALID,46,VALID,0.415234,
2011-11-17, 00:06:04,VALID,916.781,VALID,0,VALID,97.2214,VALID,0,VALID,20.1724,VALID,46,VALID,0.408594,
2011-11-17, 00:07:04,VALID,916.808,VALID,0,VALID,97.1833,VALID,0,VALID,20.1123,VALID,46,VALID,0.0273438,
2011-11-17, 00:08:04,VALID,916.787,VALID,0,VALID,97.2138,VALID,0,VALID,20.1318,VALID,46,VALID,0.342969,
2011-11-17, 00:09:04,VALID,916.756,VALID,0,VALID,97.2443,VALID,0,VALID,20.1724,VALID,46,VALID,0,
2011-11-17, 00:10:04,VALID,916.747,VALID,0,VALID,97.2824,VALID,0,VALID,20.1903,VALID,46,VALID,0.341797,
2011-11-17, 00:11:04,VALID,916.744,VALID,0,VALID,97.2595,VALID,0,VALID,20.2098,VALID,45,VALID,0.495703,
2011-11-17, 00:12:04,VALID,916.699,VALID,0,VALID,97.2977,VALID,0,VALID,20.2278,VALID,45,VALID,0.0839844,
2011-11-17, 00:13:04,VALID,916.687,VALID,0,VALID,97.2748,VALID,0,VALID,20.2668,VALID,45,VALID,0,
2011-11-17, 00:14:04,VALID,916.67,VALID,0,VALID,97.1986,VALID,0,VALID,20.2489,VALID,45,VALID,0,
2011-11-17, 00:15:04,VALID,916.614,VALID,0,VALID,97.2367,VALID,0,VALID,20.2083,VALID,45,VALID,0,
2011-11-17, 00:16:04,VALID,916.589,VALID,0,VALID,97.2138,VALID,0,VALID,20.2083,VALID,45,VALID,0,
2011-11-17, 00:17:04,VALID,916.583,VALID,0,VALID,97.229,VALID,0,VALID,20.2278,VALID,45,VALID,0,
2011-11-17, 00:18:04,VALID,916.567,VALID,0,VALID,97.2367,VALID,0,VALID,20.2278,VALID,45,VALID,0,
2011-11-17, 00:19:04,VALID,916.527,VALID,0,VALID,97.2367,VALID,0,VALID,20.2293,VALID,45,VALID,0,
2011-11-17, 00:20:04,VALID,916.553,VALID,0,VALID,97.2367,VALID,0,VALID,20.2278,VALID,45,VALID,0,
2011-11-17, 00:21:04,VALID,916.501,VALID,0,VALID,97.229,VALID,0,VALID,20.2489,VALID,45,VALID,0,
2011-11-17, 00:22:04,VALID,916.514,VALID,0,VALID,97.2595,VALID,0,VALID,20.2278,VALID,45,VALID,0,
2011-11-17, 00:23:04,VALID,916.496,VALID,0,VALID,97.2672,VALID,0,VALID,20.2473,VALID,45,VALID,0.00585938,
2011-11-17, 00:24:04,VALID,916.46,VALID,0,VALID,97.29,VALID,0,VALID,20.2668,VALID,45,VALID,0.0691406,
2011-11-17, 00:25:04,VALID,916.474,VALID,0,VALID,97.2824,VALID,0.107441,VALID,20.2863,VALID,45,VALID,0,
2011-11-17, 00:26:04,VALID,916.432,VALID,0,VALID,97.2977,VALID,0,VALID,20.3058,VALID,45,VALID,0,
2011-11-17, 00:27:04,VALID,916.426,VALID,0,VALID,97.2824,VALID,0,VALID,20.3058,VALID,45,VALID,0,
2011-11-17, 00:28:04,VALID,916.409,VALID,0,VALID,97.2977,VALID,0,VALID,20.3269,VALID,45,VALID,0.0539063,
2011-11-17, 00:29:04,VALID,916.415,VALID,0,VALID,97.2748,VALID,0,VALID,20.3058,VALID,45,VALID,0,
2011-11-17, 00:30:04,VALID,916.409,VALID,0,VALID,97.3053,VALID,0,VALID,20.3253,VALID,46,VALID,0,
2011-11-17, 00:31:04,VALID,916.396,VALID,0,VALID,97.3205,VALID,0,VALID,20.3448,VALID,45,VALID,0,
2011-11-17, 00:32:04,VALID,916.394,VALID,0,VALID,97.3205,VALID,0,VALID,20.3448,VALID,45,VALID,0,
2011-11-17, 00:33:04,VALID,916.383,VALID,0,VALID,97.3358,VALID,0,VALID,20.3643,VALID,46,VALID,0,
2011-11-17, 00:34:04,VALID,916.374,VALID,0,VALID,97.3281,VALID,0,VALID,20.4244,VALID,45,VALID,0,
2011-11-17, 00:35:04,VALID,916.361,VALID,0,VALID,97.3129,VALID,0,VALID,20.4033,VALID,46,VALID,0,
2011-11-17, 00:36:04,VALID,916.36,VALID,0,VALID,97.3053,VALID,0,VALID,20.4049,VALID,46,VALID,0,
2011-11-17, 00:37:04,VALID,916.344,VALID,0,VALID,97.3129,VALID,0,VALID,20.4033,VALID,45,VALID,0,
2011-11-17, 00:38:04,VALID,916.327,VALID,0,VALID,97.3129,VALID,0,VALID,20.4244,VALID,45,VALID,0,
2011-11-17, 00:39:04,VALID,916.329,VALID,0,VALID,97.29,VALID,0,VALID,20.4228,VALID,45,VALID,0,
2011-11-17, 00:40:04,VALID,916.332,VALID,0,VALID,97.2977,VALID,0,VALID,20.4228,VALID,45,VALID,0.251563,
2011-11-17, 00:41:04,VALID,916.307,VALID,0,VALID,97.29,VALID,0,VALID,20.4228,VALID,45,VALID,0,
2011-11-17, 00:42:04,VALID,916.347,VALID,0,VALID,97.2977,VALID,0.107441,VALID,20.4244,VALID,46,VALID,0,
2011-11-17, 00:43:04,VALID,916.318,VALID,0,VALID,97.2824,VALID,0,VALID,20.4228,VALID,45,VALID,0,
2011-11-17, 00:44:04,VALID,916.322,VALID,0,VALID,97.2824,VALID,0,VALID,20.4033,VALID,45,VALID,0,
2011-11-17, 00:45:04,VALID,916.279,VALID,0,VALID,97.2595,VALID,0,VALID,20.4033,VALID,45,VALID,0,
2011-11-17, 00:46:04,VALID,916.315,VALID,0,VALID,97.2519,VALID,0,VALID,20.3838,VALID,46,VALID,0.224609,
2011-11-17, 00:47:04,VALID,916.31,VALID,0,VALID,97.3053,VALID,0,VALID,20.3838,VALID,45,VALID,0,
2011-11-17, 00:48:04,VALID,916.31,VALID,0,VALID,97.2748,VALID,0,VALID,20.4244,VALID,46,VALID,0.0675781,
2011-11-17, 00:49:04,VALID,916.317,VALID,0,VALID,97.2443,VALID,0.107441,VALID,20.4033,VALID,46,VALID,0.203516,
2011-11-17, 00:50:04,VALID,916.297,VALID,0,VALID,97.2595,VALID,0,VALID,20.3838,VALID,45,VALID,0,
2011-11-17, 00:51:04,VALID,916.29,VALID,0,VALID,97.2595,VALID,0,VALID,20.4033,VALID,45,VALID,0,
2011-11-17, 00:52:04,VALID,916.275,VALID,0,VALID,97.2519,VALID,0,VALID,20.4033,VALID,45,VALID,0,
2011-11-17, 00:53:04,VALID,916.305,VALID,0,VALID,97.2138,VALID,0,VALID,20.4033,VALID,45,VALID,0.00703125,
2011-11-17, 00:54:04,VALID,916.29,VALID,0,VALID,97.2062,VALID,0,VALID,20.3838,VALID,46,VALID,0,
2011-11-17, 00:55:04,VALID,916.301,VALID,0,VALID,97.1909,VALID,0,VALID,20.3838,VALID,45,VALID,0,
2011-11-17, 00:56:04,VALID,916.28,VALID,0,VALID,97.1909,VALID,0,VALID,20.3838,VALID,46,VALID,0,
2011-11-17, 00:57:04,VALID,916.274,VALID,0,VALID,97.2138,VALID,0,VALID,20.4033,VALID,45,VALID,0,
2011-11-17, 00:58:04,VALID,916.3,VALID,0,VALID,97.1986,VALID,0,VALID,20.4033,VALID,45,VALID,0,
2011-11-17, 00:59:04,VALID,916.29,VALID,0,VALID,97.2062,VALID,0,VALID,20.4228,VALID,46,VALID,0,
2011-11-17, 01:00:04,VALID,916.267,VALID,0,VALID,97.1909,VALID,0,VALID,20.4228,VALID,45,VALID,0,
2011-11-17, 01:01:04,VALID,916.225,VALID,0,VALID,97.1833,VALID,0,VALID,20.4033,VALID,45,VALID,0,
2011-11-17, 01:02:04,VALID,916.23,VALID,0,VALID,97.1833,VALID,0,VALID,20.4049,VALID,45,VALID,0,
2011-11-17, 01:03:04,VALID,916.214,VALID,0,VALID,97.1681,VALID,0,VALID,20.4244,VALID,45,VALID,0,
2011-11-17, 01:04:04,VALID,916.216,VALID,0,VALID,97.1681,VALID,0,VALID,20.4228,VALID,45,VALID,0,
2011-11-17, 01:05:04,VALID,916.195,VALID,0,VALID,97.1757,VALID,0,VALID,20.4033,VALID,45,VALID,0,
2011-11-17, 01:06:04,VALID,916.216,VALID,0,VALID,97.1528,VALID,0,VALID,20.4033,VALID,45,VALID,0,
2011-11-17, 01:07:04,VALID,916.199,VALID,0,VALID,97.1299,VALID,0,VALID,20.4033,VALID,45,VALID,0,
2011-11-17, 01:08:04,VALID,916.218,VALID,0,VALID,97.1528,VALID,0,VALID,20.3838,VALID,45,VALID,0,
2011-11-17, 01:09:04,VALID,916.23,VALID,0,VALID,97.1452,VALID,0,VALID,20.4228,VALID,45,VALID,0,
2011-11-17, 01:10:04,VALID,916.199,VALID,0,VALID,97.1604,VALID,0,VALID,20.4244,VALID,46,VALID,0,
2011-11-17, 01:11:04,VALID,916.2,VALID,0,VALID,97.1299,VALID,0.107441,VALID,20.4228,VALID,45,VALID,0,
2011-11-17, 01:12:04,VALID,916.199,VALID,0,VALID,97.1452,VALID,0,VALID,20.4228,VALID,45,VALID,0,
2011-11-17, 01:13:04,VALID,916.152,VALID,0,VALID,97.1071,VALID,0,VALID,20.4439,VALID,45,VALID,0,
2011-11-17, 01:14:04,VALID,916.14,VALID,0,VALID,97.0842,VALID,0,VALID,20.4033,VALID,45,VALID,0,
2011-11-17, 01:15:04,VALID,916.122,VALID,0,VALID,97.1071,VALID,0,VALID,20.4033,VALID,46,VALID,0,
2011-11-17, 01:16:04,VALID,916.12,VALID,0,VALID,97.1376,VALID,0,VALID,20.4228,VALID,45,VALID,0,
2011-11-17, 01:17:04,VALID,916.115,VALID,0,VALID,97.1299,VALID,0,VALID,20.4228,VALID,45,VALID,0,
2011-11-17, 01:18:04,VALID,916.076,VALID,0,VALID,97.1376,VALID,0,VALID,20.4634,VALID,45,VALID,0,
2011-11-17, 01:19:04,VALID,916.06,VALID,0,VALID,97.1071,VALID,0,VALID,20.4423,VALID,46,VALID,0,
2011-11-17, 01:20:04,VALID,916.043,VALID,0,VALID,97.0842,VALID,0,VALID,20.4423,VALID,45,VALID,0,
2011-11-17, 01:21:04,VALID,916.064,VALID,0,VALID,97.0918,VALID,0,VALID,20.4228,VALID,45,VALID,0,
2011-11-17, 01:22:04,VALID,916.014,VALID,0,VALID,97.0918,VALID,0.107441,VALID,20.4423,VALID,45,VALID,0,
2011-11-17, 01:23:04,VALID,916.005,VALID,0,VALID,97.1071,VALID,0,VALID,20.4618,VALID,45,VALID,0,
2011-11-17, 01:24:04,VALID,916.017,VALID,0,VALID,97.0994,VALID,0,VALID,20.4618,VALID,46,VALID,0,
2011-11-17, 01:25:04,VALID,916.002,VALID,0,VALID,97.0842,VALID,0,VALID,20.4618,VALID,45,VALID,0,
2011-11-17, 01:26:04,VALID,915.972,VALID,0,VALID,97.0918,VALID,0,VALID,20.4618,VALID,45,VALID,0,
2011-11-17, 01:27:04,VALID,915.995,VALID,0,VALID,97.0842,VALID,0,VALID,20.4618,VALID,46,VALID,0,
2011-11-17, 01:28:04,VALID,915.974,VALID,0,VALID,97.069,VALID,0,VALID,20.4228,VALID,45,VALID,0,
2011-11-17, 01:29:04,VALID,916.014,VALID,0,VALID,97.0461,VALID,0,VALID,20.4228,VALID,45,VALID,0,
2011-11-17, 01:30:04,VALID,916.026,VALID,0,VALID,97.0232,VALID,0.107441,VALID,20.4228,VALID,45,VALID,0,
2011-11-17, 01:31:04,VALID,916.016,VALID,0,VALID,97.0232,VALID,0,VALID,20.4033,VALID,45,VALID,0,
2011-11-17, 01:32:04,VALID,916.025,VALID,0,VALID,97.0232,VALID,0,VALID,20.4033,VALID,45,VALID,0,
2011-11-17, 01:33:04,VALID,915.978,VALID,0,VALID,97.0461,VALID,0.107441,VALID,20.4033,VALID,45,VALID,0,
2011-11-17, 01:34:04,VALID,915.983,VALID,0,VALID,97.0461,VALID,0,VALID,20.4033,VALID,45,VALID,0,
2011-11-17, 01:35:04,VALID,915.96,VALID,0,VALID,97.0156,VALID,0,VALID,20.4033,VALID,46,VALID,0,
2011-11-17, 01:36:04,VALID,915.913,VALID,0,VALID,96.9927,VALID,0,VALID,20.3643,VALID,45,VALID,0,
2011-11-17, 01:37:04,VALID,915.9,VALID,0,VALID,97.008,VALID,0,VALID,20.3448,VALID,46,VALID,0,
2011-11-17, 01:38:04,VALID,915.909,VALID,0,VALID,97.008,VALID,0,VALID,20.3448,VALID,45,VALID,0,
2011-11-17, 01:39:04,VALID,915.895,VALID,0,VALID,97.0461,VALID,0.107441,VALID,20.3448,VALID,46,VALID,0,
2011-11-17, 01:40:04,VALID,915.889,VALID,0,VALID,97.0385,VALID,0,VALID,20.3448,VALID,45,VALID,0,
2011-11-17, 01:41:04,VALID,915.881,VALID,0,VALID,97.0918,VALID,0,VALID,20.3854,VALID,45,VALID,0,
2011-11-17, 01:42:04,VALID,915.91,VALID,0,VALID,97.0766,VALID,0,VALID,20.3643,VALID,45,VALID,0,
2011-11-17, 01:43:04,VALID,915.913,VALID,0,VALID,97.0842,VALID,0,VALID,20.3643,VALID,45,VALID,0,
2011-11-17, 01:44:04,VALID,915.9,VALID,0,VALID,97.0842,VALID,0,VALID,20.3854,VALID,45,VALID,0,
2011-11-17, 01:45:04,VALID,915.885,VALID,0,VALID,97.0994,VALID,0,VALID,20.3838,VALID,46,VALID,0,
2011-11-17, 01:46:04,VALID,915.882,VALID,0,VALID,97.0842,VALID,0,VALID,20.3838,VALID,45,VALID,0,
2011-11-17, 01:47:04,VALID,915.908,VALID,0,VALID,97.0613,VALID,0,VALID,20.3838,VALID,45,VALID,0,
2011-11-17, 01:48:04,VALID,915.9,VALID,0,VALID,97.069,VALID,0,VALID,20.3838,VALID,45,VALID,0,
2011-11-17, 01:49:04,VALID,915.888,VALID,0,VALID,97.069,VALID,0.107441,VALID,20.3838,VALID,45,VALID,0,
2011-11-17, 01:50:04,VALID,915.875,VALID,0,VALID,97.0385,VALID,0,VALID,20.3448,VALID,46,VALID,0.607813,
2011-11-17, 01:51:04,VALID,915.862,VALID,0,VALID,97.0842,VALID,0,VALID,20.3253,VALID,45,VALID,0.46875,
2011-11-17, 01:52:04,VALID,915.832,VALID,0,VALID,97.0918,VALID,0,VALID,20.3448,VALID,45,VALID,0.461328,
2011-11-17, 01:53:04,VALID,915.826,VALID,0,VALID,97.1071,VALID,0,VALID,20.3448,VALID,45,VALID,0.558594,
2011-11-17, 01:54:04,VALID,915.799,VALID,0,VALID,97.0994,VALID,0.107441,VALID,20.3448,VALID,45,VALID,0.491016,
2011-11-17, 01:55:04,VALID,915.822,VALID,0,VALID,97.0613,VALID,0,VALID,20.3253,VALID,45,VALID,0.365625,
2011-11-17, 01:56:04,VALID,915.832,VALID,0,VALID,97.0613,VALID,0.107441,VALID,20.2863,VALID,45,VALID,0.563281,
2011-11-17, 01:57:04,VALID,915.774,VALID,0,VALID,97.0766,VALID,0,VALID,20.2894,VALID,45,VALID,0.719922,
2011-11-17, 01:58:04,VALID,915.789,VALID,0,VALID,97.0308,VALID,0,VALID,20.2489,VALID,45,VALID,0.56875,
2011-11-17, 01:59:04,VALID,915.775,VALID,0,VALID,97.0918,VALID,0,VALID,20.2699,VALID,45,VALID,0.360156,
2011-11-17, 02:00:04,VALID,915.794,VALID,0,VALID,97.0918,VALID,0,VALID,20.2293,VALID,45,VALID,0.511719,
2011-11-17, 02:01:04,VALID,915.788,VALID,0,VALID,97.0994,VALID,0,VALID,20.2309,VALID,45,VALID,0.541797,
2011-11-17, 02:02:04,VALID,915.799,VALID,0,VALID,97.1147,VALID,0,VALID,20.2309,VALID,45,VALID,0.689844,
2011-11-17, 02:03:04,VALID,915.782,VALID,0,VALID,97.0994,VALID,0,VALID,20.1903,VALID,45,VALID,0.812109,
2011-11-17, 02:04:04,VALID,915.768,VALID,0,VALID,97.1071,VALID,0,VALID,20.1708,VALID,45,VALID,0.460938,
2011-11-17, 02:05:04,VALID,915.774,VALID,0,VALID,97.1452,VALID,0,VALID,20.1708,VALID,45,VALID,0.546875,
2011-11-17, 02:06:04,VALID,915.794,VALID,0,VALID,97.1528,VALID,0,VALID,20.1708,VALID,45,VALID,0.495703,
2011-11-17, 02:07:04,VALID,915.8,VALID,0,VALID,97.1604,VALID,0,VALID,20.2114,VALID,45,VALID,0.191797,
2011-11-17, 02:08:04,VALID,915.819,VALID,0,VALID,97.1681,VALID,0,VALID,20.1903,VALID,45,VALID,0.383594,
2011-11-17, 02:09:04,VALID,915.84,VALID,0,VALID,97.1909,VALID,0,VALID,20.2098,VALID,45,VALID,0.479688,
2011-11-17, 02:10:04,VALID,915.843,VALID,0,VALID,97.1757,VALID,0,VALID,20.2098,VALID,45,VALID,0.441797,
2011-11-17, 02:11:04,VALID,915.82,VALID,0,VALID,97.1833,VALID,0,VALID,20.2098,VALID,45,VALID,0.845312,
2011-11-17, 02:12:04,VALID,915.823,VALID,0,VALID,97.1681,VALID,0,VALID,20.1888,VALID,45,VALID,1.10898,
2011-11-17, 02:13:04,VALID,915.778,VALID,0,VALID,97.1833,VALID,0,VALID,20.1693,VALID,45,VALID,0.998438,
2011-11-17, 02:14:04,VALID,915.792,VALID,0,VALID,97.1681,VALID,0,VALID,20.2098,VALID,45,VALID,0.964063,
2011-11-17, 02:15:04,VALID,915.784,VALID,0,VALID,97.1909,VALID,0.107441,VALID,20.1888,VALID,45,VALID,0.420312,
2011-11-17, 02:16:04,VALID,915.764,VALID,0,VALID,97.2062,VALID,0,VALID,20.1693,VALID,45,VALID,0.347656,
2011-11-17, 02:17:04,VALID,915.768,VALID,0,VALID,97.1833,VALID,0,VALID,20.1888,VALID,45,VALID,0.0621094,
2011-11-17, 02:18:04,VALID,915.775,VALID,0,VALID,97.1986,VALID,0,VALID,20.1693,VALID,45,VALID,0.196484,
2011-11-17, 02:19:04,VALID,915.767,VALID,0,VALID,97.1986,VALID,0,VALID,20.1693,VALID,45,VALID,0.20625,
2011-11-17, 02:20:04,VALID,915.709,VALID,0,VALID,97.1909,VALID,0,VALID,20.1693,VALID,45,VALID,0.417188,
2011-11-17, 02:21:04,VALID,915.732,VALID,0,VALID,97.1909,VALID,0,VALID,20.1903,VALID,45,VALID,0.185937,
2011-11-17, 02:22:04,VALID,915.702,VALID,0,VALID,97.1909,VALID,0.107441,VALID,20.1903,VALID,45,VALID,0.0132813,
2011-11-17, 02:23:04,VALID,915.694,VALID,0,VALID,97.1833,VALID,0,VALID,20.1693,VALID,45,VALID,0.280469,
2011-11-17, 02:24:04,VALID,915.706,VALID,0,VALID,97.1681,VALID,0,VALID,20.1693,VALID,45,VALID,0.419531,
2011-11-17, 02:25:04,VALID,915.696,VALID,0,VALID,97.1909,VALID,0,VALID,20.1693,VALID,45,VALID,0.243359,
2011-11-17, 02:26:04,VALID,915.704,VALID,0,VALID,97.1909,VALID,0,VALID,20.1903,VALID,45,VALID,0.372266,
2011-11-17, 02:27:04,VALID,915.708,VALID,0,VALID,97.1833,VALID,0,VALID,20.1903,VALID,45,VALID,0.461719,
2011-11-17, 02:28:04,VALID,915.716,VALID,0,VALID,97.1604,VALID,0,VALID,20.1498,VALID,45,VALID,0.317187,
2011-11-17, 02:29:04,VALID,915.717,VALID,0,VALID,97.1833,VALID,0,VALID,20.1513,VALID,45,VALID,0.478125,
2011-11-17, 02:30:04,VALID,915.696,VALID,0,VALID,97.1757,VALID,0,VALID,20.1513,VALID,45,VALID,0.0242187,
2011-11-17, 02:31:04,VALID,915.721,VALID,0,VALID,97.1909,VALID,0,VALID,20.1108,VALID,45,VALID,0.382422,
2011-11-17, 02:32:04,VALID,915.722,VALID,0,VALID,97.1909,VALID,0,VALID,20.1513,VALID,45,VALID,0.572656,
2011-11-17, 02:33:04,VALID,915.716,VALID,0,VALID,97.1833,VALID,0,VALID,20.1513,VALID,45,VALID,0,
2011-11-17, 02:34:04,VALID,915.681,VALID,0,VALID,97.1757,VALID,0,VALID,20.1108,VALID,45,VALID,0.373828,
2011-11-17, 02:35:04,VALID,915.656,VALID,0,VALID,97.1833,VALID,0,VALID,20.0913,VALID,45,VALID,0.487891,
2011-11-17, 02:36:04,VALID,915.644,VALID,0,VALID,97.1681,VALID,0,VALID,20.0928,VALID,45,VALID,0.640234,
2011-11-17, 02:37:04,VALID,915.59,VALID,0,VALID,97.1452,VALID,0,VALID,20.0523,VALID,45,VALID,0.0992187,
2011-11-17, 02:38:04,VALID,915.595,VALID,0,VALID,97.1452,VALID,0,VALID,20.0328,VALID,45,VALID,0.164063,
2011-11-17, 02:39:04,VALID,915.58,VALID,0,VALID,97.1223,VALID,0,VALID,20.0343,VALID,45,VALID,0.676562,
2011-11-17, 02:40:04,VALID,915.58,VALID,0,VALID,97.1376,VALID,0,VALID,20.0148,VALID,45,VALID,0.354297,
2011-11-17, 02:41:04,VALID,915.57,VALID,0,VALID,97.1223,VALID,0,VALID,19.9743,VALID,45,VALID,0.351953,
2011-11-17, 02:42:04,VALID,915.57,VALID,0,VALID,97.1299,VALID,0.107441,VALID,19.9758,VALID,45,VALID,0.474219,
2011-11-17, 02:43:04,VALID,915.562,VALID,0,VALID,97.1528,VALID,0,VALID,19.9773,VALID,45,VALID,0.523438,
2011-11-17, 02:44:04,VALID,915.542,VALID,0,VALID,97.1376,VALID,0,VALID,19.9773,VALID,45,VALID,0.374219,
2011-11-17, 02:45:04,VALID,915.546,VALID,0,VALID,97.1528,VALID,0,VALID,19.9578,VALID,45,VALID,0.881641,
2011-11-17, 02:46:04,VALID,915.539,VALID,0,VALID,97.1452,VALID,0,VALID,19.9578,VALID,45,VALID,0.555859,
2011-11-17, 02:47:04,VALID,915.505,VALID,0,VALID,97.1604,VALID,0,VALID,19.9383,VALID,45,VALID,0.326562,
2011-11-17, 02:48:04,VALID,915.497,VALID,0,VALID,97.1604,VALID,0,VALID,19.9383,VALID,45,VALID,0.477734,
2011-11-17, 02:49:04,VALID,915.482,VALID,0,VALID,97.1604,VALID,0,VALID,19.9173,VALID,45,VALID,0.477344,
2011-11-17, 02:50:04,VALID,915.532,VALID,0,VALID,97.1528,VALID,0,VALID,19.9383,VALID,45,VALID,0,
2011-11-17, 02:51:04,VALID,915.528,VALID,0,VALID,97.1604,VALID,0,VALID,19.9188,VALID,45,VALID,0,
2011-11-17, 02:52:04,VALID,915.529,VALID,0,VALID,97.1071,VALID,0,VALID,19.8798,VALID,45,VALID,0,
2011-11-17, 02:53:04,VALID,915.549,VALID,0,VALID,97.069,VALID,0,VALID,19.8408,VALID,45,VALID,0,
2011-11-17, 02:54:04,VALID,915.524,VALID,0,VALID,96.9622,VALID,0,VALID,19.7823,VALID,45,VALID,0,
2011-11-17, 02:55:04,VALID,915.513,VALID,0,VALID,97.0003,VALID,0,VALID,19.7238,VALID,45,VALID,0.555859,
2011-11-17, 02:56:04,VALID,915.493,VALID,0,VALID,97.069,VALID,0,VALID,19.6833,VALID,45,VALID,0.669141,
2011-11-17, 02:57:04,VALID,915.531,VALID,0,VALID,97.1757,VALID,0,VALID,19.7418,VALID,45,VALID,0.648047,
2011-11-17, 02:58:04,VALID,915.527,VALID,0,VALID,97.1909,VALID,0,VALID,19.7208,VALID,45,VALID,0.476563,
2011-11-17, 02:59:04,VALID,915.512,VALID,0,VALID,97.1833,VALID,0,VALID,19.7028,VALID,45,VALID,0.482422,
2011-11-17, 03:00:04,VALID,915.491,VALID,0,VALID,97.2214,VALID,0,VALID,19.7028,VALID,45,VALID,0.667188,
2011-11-17, 03:01:04,VALID,915.48,VALID,0,VALID,97.229,VALID,0,VALID,19.7028,VALID,45,VALID,0.576563,
2011-11-17, 03:02:04,VALID,915.492,VALID,0,VALID,97.2443,VALID,0,VALID,19.7028,VALID,45,VALID,0.503516,
2011-11-17, 03:03:04,VALID,915.487,VALID,0,VALID,97.2138,VALID,0,VALID,19.6833,VALID,45,VALID,0.683203,
2011-11-17, 03:04:04,VALID,915.439,VALID,0,VALID,97.2367,VALID,0,VALID,19.6638,VALID,45,VALID,0.55625,
2011-11-17, 03:05:04,VALID,915.482,VALID,0,VALID,97.2443,VALID,0,VALID,19.6428,VALID,45,VALID,0.448438,
2011-11-17, 03:06:04,VALID,915.435,VALID,0,VALID,97.29,VALID,0,VALID,19.6443,VALID,45,VALID,0.497656,
2011-11-17, 03:07:04,VALID,915.424,VALID,0,VALID,97.29,VALID,0,VALID,19.6428,VALID,45,VALID,0.526953,
2011-11-17, 03:08:04,VALID,915.396,VALID,0,VALID,97.3053,VALID,0,VALID,19.6638,VALID,45,VALID,0.556641,
2011-11-17, 03:09:04,VALID,915.375,VALID,0,VALID,97.3281,VALID,0,VALID,19.6638,VALID,45,VALID,0.553516,
2011-11-17, 03:10:04,VALID,915.375,VALID,0,VALID,97.3358,VALID,0,VALID,19.6638,VALID,45,VALID,0.535156,
2011-11-17, 03:11:04,VALID,915.361,VALID,0,VALID,97.2443,VALID,0,VALID,19.6248,VALID,45,VALID,0.578906,
2011-11-17, 03:12:04,VALID,915.353,VALID,0,VALID,97.2595,VALID,0,VALID,19.5858,VALID,45,VALID,0.415625,
2011-11-17, 03:13:04,VALID,915.342,VALID,0,VALID,97.2672,VALID,0,VALID,19.5678,VALID,45,VALID,0.730859,
2011-11-17, 03:14:04,VALID,915.32,VALID,0,VALID,97.2367,VALID,0,VALID,19.5078,VALID,45,VALID,0.535547,
2011-11-17, 03:15:04,VALID,915.336,VALID,0,VALID,97.2824,VALID,0,VALID,19.5078,VALID,45,VALID,0.664453,
2011-11-17, 03:16:04,VALID,915.35,VALID,0,VALID,97.3281,VALID,0,VALID,19.5273,VALID,45,VALID,0.667188,
2011-11-17, 03:17:04,VALID,915.33,VALID,0,VALID,97.3281,VALID,0,VALID,19.4883,VALID,45,VALID,0.530859,
2011-11-17, 03:18:04,VALID,915.319,VALID,0,VALID,97.3891,VALID,0,VALID,19.4868,VALID,45,VALID,0.646484,
2011-11-17, 03:19:04,VALID,915.306,VALID,0,VALID,97.412,VALID,0,VALID,19.5273,VALID,45,VALID,0.674609,
2011-11-17, 03:20:04,VALID,915.311,VALID,0,VALID,97.3968,VALID,0,VALID,19.5078,VALID,45,VALID,0.583203,
2011-11-17, 03:21:04,VALID,915.318,VALID,0,VALID,97.4044,VALID,0,VALID,19.5273,VALID,45,VALID,0.585938,
2011-11-17, 03:22:04,VALID,915.337,VALID,0,VALID,97.4349,VALID,0,VALID,19.5273,VALID,45,VALID,0.46875,
2011-11-17, 03:23:04,VALID,915.38,VALID,0,VALID,97.4349,VALID,0,VALID,19.5273,VALID,45,VALID,0.203516,
2011-11-17, 03:24:04,VALID,915.362,VALID,0,VALID,97.473,VALID,0,VALID,19.5453,VALID,45,VALID,0.621875,
2011-11-17, 03:25:04,VALID,915.388,VALID,0,VALID,97.4882,VALID,0,VALID,19.5663,VALID,45,VALID,0.428125,
2011-11-17, 03:26:04,VALID,915.372,VALID,0,VALID,97.4959,VALID,0,VALID,19.6248,VALID,45,VALID,0.352344,
2011-11-17, 03:27:04,VALID,915.403,VALID,0,VALID,97.5264,VALID,0,VALID,19.6248,VALID,45,VALID,0.683203,
2011-11-17, 03:28:04,VALID,915.401,VALID,0,VALID,97.4959,VALID,0,VALID,19.6833,VALID,45,VALID,0.695313,
2011-11-17, 03:29:04,VALID,915.415,VALID,0,VALID,97.5187,VALID,0,VALID,19.6833,VALID,45,VALID,0.432422,
2011-11-17, 03:30:04,VALID,915.404,VALID,0,VALID,97.5187,VALID,0,VALID,19.7028,VALID,45,VALID,0.678125,
2011-11-17, 03:31:04,VALID,915.42,VALID,0,VALID,97.4959,VALID,0,VALID,19.7028,VALID,72,VALID,1.40508,
2011-11-17, 03:32:04,VALID,915.426,VALID,0,VALID,97.5035,VALID,0,VALID,19.7208,VALID,122,VALID,0.796875,
2011-11-17, 03:33:04,VALID,915.426,VALID,0,VALID,97.4882,VALID,0.107441,VALID,19.7418,VALID,122,VALID,0.594922,
2011-11-17, 03:34:04,VALID,915.438,VALID,0,VALID,97.4882,VALID,0,VALID,19.7013,VALID,122,VALID,0.466016,
2011-11-17, 03:35:04,VALID,915.432,VALID,0,VALID,97.5111,VALID,0,VALID,19.7208,VALID,122,VALID,0.688281,
2011-11-17, 03:36:04,VALID,915.424,VALID,0,VALID,97.4959,VALID,0,VALID,19.7418,VALID,122,VALID,0.571875,
2011-11-17, 03:37:04,VALID,915.454,VALID,0,VALID,97.5035,VALID,0,VALID,19.7223,VALID,122,VALID,0.487109,
2011-11-17, 03:38:04,VALID,915.437,VALID,0,VALID,97.4882,VALID,0,VALID,19.7223,VALID,122,VALID,0.541016,
2011-11-17, 03:39:04,VALID,915.427,VALID,0,VALID,97.4654,VALID,0,VALID,19.7028,VALID,122,VALID,0.419141,
2011-11-17, 03:40:04,VALID,915.395,VALID,0,VALID,97.473,VALID,0,VALID,19.6623,VALID,122,VALID,0.727734,
2011-11-17, 03:41:04,VALID,915.389,VALID,0,VALID,97.4806,VALID,0,VALID,19.6638,VALID,122,VALID,0.5375,
2011-11-17, 03:42:04,VALID,915.383,VALID,0,VALID,97.4654,VALID,0,VALID,19.6443,VALID,122,VALID,0.383203,
2011-11-17, 03:43:04,VALID,915.373,VALID,0,VALID,97.4882,VALID,0,VALID,19.6038,VALID,122,VALID,0.604688,
2011-11-17, 03:44:04,VALID,915.35,VALID,0,VALID,97.4882,VALID,0,VALID,19.6443,VALID,122,VALID,0.205469,
2011-11-17, 03:45:04,VALID,915.325,VALID,0,VALID,97.5035,VALID,0,VALID,19.6053,VALID,122,VALID,0.367188,
2011-11-17, 03:46:04,VALID,915.368,VALID,0,VALID,97.5111,VALID,0,VALID,19.5843,VALID,122,VALID,0.454297,
2011-11-17, 03:47:04,VALID,915.357,VALID,0,VALID,97.4959,VALID,0,VALID,19.5858,VALID,122,VALID,0.446484,
2011-11-17, 03:48:04,VALID,915.33,VALID,0,VALID,97.5187,VALID,0,VALID,19.5663,VALID,122,VALID,0.28125,
2011-11-17, 03:49:04,VALID,915.338,VALID,0,VALID,97.534,VALID,0,VALID,19.5663,VALID,122,VALID,0.539063,
2011-11-17, 03:50:04,VALID,915.331,VALID,0,VALID,97.534,VALID,0,VALID,19.5468,VALID,122,VALID,0.736719,
2011-11-17, 03:51:04,VALID,915.328,VALID,0,VALID,97.5264,VALID,0,VALID,19.5273,VALID,122,VALID,0.574609,